Location: Caltech
(34.1382°N, 118.1253°W)
Time: 08:23:28
(UTC-07:00)

Gbstr 26 Del rocket - Visible Passes

Search period start: 22 October 2014 00:00
Search period end: 01 November 2014 00:00
Orbit: 493 x 1278 km, 51.8° (Epoch: 21 October)

Date Brightness Start Highest point End Pass type
(mag) Time Alt. Az. Time Alt. Az. Time Alt. Az.
22 Oct 3.7 19:14:47 10° NNW 19:18:22 33° NE 19:19:47 26° ENE visible
22 Oct 5.8 21:01:35 10° WNW 21:02:31 15° WNW 21:02:31 15° WNW visible
23 Oct 3.3 19:12:07 10° NNW 19:15:52 44° NE 19:17:58 25° E visible
23 Oct 5.8 20:59:29 10° W 21:00:42 16° W 21:00:42 16° W visible
24 Oct 2.9 19:09:29 10° NW 19:13:21 61° NE 19:16:20 19° ESE visible
24 Oct 5.8 20:57:42 10° W 20:59:05 14° WSW 20:59:05 14° WSW visible
25 Oct 2.8 19:06:54 10° NW 19:10:48 87° NE 19:14:59 12° SE visible
26 Oct 3.2 19:04:23 10° NW 19:08:14 65° SW 19:12:41 10° SE visible
27 Oct 4.0 19:01:56 10° WNW 19:05:38 44° SW 19:09:53 10° SSE visible
28 Oct 4.8 18:59:36 10° WNW 19:03:02 30° SW 19:06:54 10° SSE visible
29 Oct 5.5 18:57:26 10° W 19:00:24 21° SW 19:03:41 10° S visible
30 Oct 5.9 18:55:36 10° W 18:57:45 14° SW 19:00:04 10° SSW visible
